Hourly Data Report for July 11, 2021

CARIBOU POINT (AUT)
NOVA SCOTIA
Current Station Operator: ECCC - MSC

45°46'00.000" N
62°41'00.000" W
2.40 m
8200774
71415
WBK

Download Data

Hourly Data (July 2021)
Hourly Data Report for July 11, 2021
TIME
LST
Temp Definition
°C
Dew Point Definition
°C
Rel Hum Definition
%
Precip. Amount Definition
mm

Wind Dir Definition
10's deg

Wind Spd Definition
km/h
Visibility Definition
km
Stn Press Definition
kPa
Hmdx Definition


Wind Chill Definition


Weather Definition


00:00 15.3 13.9 92 0.0 7 8   101.56     LegendNANA
01:00 15.0 14.0 94 0.0 4 9   101.56     LegendNANA
02:00 14.9 13.8 94 0.0 3 9   101.52     LegendNANA
03:00 14.9 14.0 94 0.0 8 5   101.55     LegendNANA
04:00 14.9 14.1 95 0.0 31 4   101.60     LegendNANA
05:00 15.0 14.2 95 0.0 31 7   101.64     LegendNANA
06:00 14.9 14.2 95 0.0 31 10   101.71     LegendNANA
07:00 15.5 14.9 96 0.0 32 7   101.74     LegendNANA
08:00 16.2 15.2 94 0.0 30 7   101.74     LegendNANA
09:00 16.5 14.5 88 0.0 32 7   101.75     LegendNANA
10:00 17.7 15.7 88 0.0 31 5   101.76     LegendNANA
11:00 19.0 16.6 86 0.0 10 5   101.72     LegendNANA
12:00 18.5 16.6 89 0.0 12 8   101.72     LegendNANA
13:00 18.1 16.8 92 0.0 5 6   101.74     LegendNANA
14:00 18.2 16.3 88 0.0 8 6   101.73     LegendNANA
15:00 18.3 16.2 87 0.0 7 5   101.68     LegendNANA
16:00 18.9 17.1 89 0.0 3 4   101.65     LegendNANA
17:00 18.9 17.2 90 0.0 11 5   101.67     LegendNANA
18:00 18.3 17.1 92 0.0 12 6   101.65     LegendNANA
19:00 17.7 16.8 95 0.0 14 9   101.66     LegendNANA
20:00 17.0 16.1 95 0.0 17 7   101.67     LegendNANA
21:00 17.1 15.8 92 0.0 19 4   101.71     LegendNANA
22:00 17.3 14.3 83 0.0 21 5   101.70     LegendNANA
23:00 18.2 16.7 91 0.0 24 6   101.66     LegendNANA

Notes on Data Quality.

Legend

  • E = Estimated
  • M = Missing
  • NA = Not Available*
  • [empty] = Indicates an unobserved value
Date modified: